Location: Northcutt
(34.7304°N, 84.4305°W)
Time: 03:29:07
(UTC+00:00)

Vanguard 2 - Pass Details

Date: 08 October 2022
Orbit: 553 x 2933 km, 32.9° (Epoch: 05 December)

Event Time Altitude Azimuth Distance (km) Brightness Sun altitude
Rises 22:31:00 0° 282° (WNW) 5,663 13.3 7.5°
Reaches altitude 10° 22:34:28 10° 278° (W) 4,925 13.3 6.8°
Maximum altitude 22:48:45 49° 209° (SSW) 3,392 11.3 3.9°
Drops below altitude 10° 23:05:25 10° 141° (SE) 5,647 11.6 0.5°
Sets 23:09:47 0° 136° (SE) 6,517 11.9 -0.4°
